This is the latest recevied weather packets stored in our database for station/object KN4MGS. If no packets are shown the sender has not sent any weather packets the latest 10 day(s).
| Time | Temp. | Humidity | Pressure | Rain* | Wind** | Luminosity | Snow |
|---|---|---|---|---|---|---|---|
| 1777841485 | 22.22° C | 36% | 1020.3 hPa | 0 mm | - | 482 W/m² | - |
| 1777841182 | 21.67° C | 37% | 1020.4 hPa | 0 mm | - | 494 W/m² | - |
| 1777840879 | 21.11° C | 37% | 1020.3 hPa | 0 mm | - | 501 W/m² | - |
| 1777840576 | 22.22° C | 36% | 1020.6 hPa | 0 mm | - | 537 W/m² | - |
| 1777840273 | 21.11° C | 34% | 1020.4 hPa | 0 mm | - | 562 W/m² | - |
| 1777839971 | 21.11° C | 35% | 1020.5 hPa | 0 mm | - | 458 W/m² | - |
| 1777839669 | 21.67° C | 36% | 1020.6 hPa | 0 mm | - | 523 W/m² | - |
| 1777839366 | 21.67° C | 35% | 1020.8 hPa | 0 mm | - | 542 W/m² | - |
| 1777839064 | 21.67° C | 35% | 1020.8 hPa | 0 mm | - | 600 W/m² | - |
| 1777838760 | 21.67° C | 37% | 1021.1 hPa | 0 mm | - | 601 W/m² | - |
| 1777838457 | 20.56° C | 38% | 1020.9 hPa | 0 mm | - | 549 W/m² | - |
| 1777838154 | 20° C | 38% | 1021 hPa | 0 mm | - | 544 W/m² | - |
| 1777837850 | 21.11° C | 37% | 1021.1 hPa | 0 mm | - | 605 W/m² | - |
| 1777837547 | 21.11° C | 37% | 1021.2 hPa | 0 mm | - | 639 W/m² | - |
| 1777837247 | 20° C | 40% | 1021.5 hPa | 0 mm | - | 648 W/m² | - |
| 1777836944 | 20.56° C | 38% | 1021.3 hPa | 0 mm | - | 664 W/m² | - |
| 1777836639 | 20.56° C | 37% | 1021.4 hPa | 0 mm | - | 670 W/m² | - |
| 1777836336 | 20.56° C | 39% | 1021.5 hPa | 0 mm | - | 674 W/m² | - |
| 1777836032 | 21.67° C | 36% | 1021.6 hPa | 0 mm | - | 681 W/m² | - |
| 1777835729 | 20.56° C | 39% | 1021.8 hPa | 0 mm | - | 623 W/m² | - |
| 1777835426 | 21.11° C | 39% | 1021.9 hPa | 0 mm | - | 642 W/m² | - |
| 1777835122 | 20.56° C | 39% | 1021.7 hPa | 0 mm | - | 697 W/m² | - |
| 1777834820 | 20.56° C | 39% | 1022 hPa | 0 mm | - | 705 W/m² | - |
| 1777834516 | 20° C | 38% | 1022 hPa | 0 mm | - | 712 W/m² | - |
| 1777834215 | 20.56° C | 39% | 1021.9 hPa | 0 mm | - | 723 W/m² | - |
* Rain latest hour (hover to see other rain measurements)
** Current wind speed in m/s (hover to see current wind gust speed)